Location: Grasslands National Park East Block
(49.0708°N, 106.5295°W)
Time: 08:41:28
(UTC-06:00)

Vanguard 1 - Pass Details

Date: 24 September 2019
Orbit: 653 x 3830 km, 34.3° (Epoch: 14 October)

Event Time Altitude Azimuth Distance (km) Brightness Sun altitude
Rises 06:43:07 0° 271° (W) 7,948 - -2.8°
Exits shadow 06:44:48 - 270° (W) 7,630 13.9 -2.6°
Reaches altitude 10° 06:49:18 10° 266° (W) 6,770 13.7 -1.8°
Maximum altitude 07:07:35 39° 207° (SSW) 3,761 12.9 1.2°
Drops below altitude 10° 07:19:23 10° 145° (SE) 4,423 14.1 3.1°
Sets 07:22:28 0° 137° (SE) 5,051 14.5 3.6°
